C/2006 Q1 (McNaught)
Epoch 2008 June 23.0 TT = JDT 2454640.5  
T 2008 July 3.85601 TT                                  Nakano
q   2.7636659            (2000.0)            P               Q
z  +0.0000721      Peri.  344.37968     -0.95390154     -0.08801981
 +/-0.0000004      Node   199.54628     -0.08403034     -0.83945728
e   0.9998008      Incl.   59.04704     -0.28811586     +0.53624992
From 2336 observations 2006 Aug. 20-2010 Feb. 19, mean residual 0".65.
   (1/a)org.= +0.000032, (1/a)fut.= +0.000691 (+/-0.000000), Q= 9.
   See residuals in NK 1882.

NAKANO
         **** Don't distribute anyone except personal use only ****
           (C) Copyright 2010 Orbit.Astro.Assoc./ComputingSection
write mail from CFAD0::NAKANO on 2010-03-22 08:10:35(JST).

